EHI
0 0 0 0 0 0 0 0 0 0 0 0 0 0 0 0 0 0 0 0 0 0 0 0 0 0 0 0 0 0 0 0 0 0 0 0 0 0 0 0 0 0 0 0
0 0 0 0 0 0 0 0 0 0 0 0 0 0 0 0 0 0 0 0 0 0 0 0 0 0 0 0 0 0 0 0 0 0 0 0 0 0 0 0 0 0 0 0
0 0 0 0 0 0 0 0 0 0 0 0 0 0 0 0 0 0 0 0 0 0 0 0 0 0 0 0 0 0 0 0 0 0 0 0 0 0 0 0 0 0 0 0
0 0 0 0 0 0 0 0 0 0 0 0 0 0 0 0 0 0 0 0 0 0 0 0 0 0 0 0 0 0 0 0 0 0 0 0 0 0 0 0 0 0 0 0
0 0 0 0 0 0 0 0 0 0 0 0 0 0 0 0 0 0 0 0 0 0 0 0 0 0 0 0 0 0 0 0 0 0 0 0 0 0 0 0 0 0 0 0
0 0 0 0 0 0 0 0 0 0 0 0 0 0 0 0 0 0 0 0 0 0 0 0 0 0 0 0 0 0 0 0 0 0 0 0 0 0 0 0 0 0 0 0
0 0 0 0 0 0 0 0 0 0 0 0 0 0 0 0 0 0 0 0 0 0 0 0 0 0 0 0 0 0 0 0 0 0 0 0 0 0 0 0 0 0 0 0
0 0 0 0 0 0 0 0 0 0 0 0 0 0 0 0 0 0 0 0 0 0 0 0 0 0 0 0 0 0 0 0 0 0 0 0 0 0 0 0 0 0 0 0
0 0 0 0 0 0 0 0 0 0 0 0 0 0 0 0 0 0 0 0 0 0 0 0 0 0 0 0 0 0 0 0 0 0 0 0 0 0 0 0 0 0 0 0
0 0 0 0 0 0 0 0 0 0 0 0 0 0 0 0 0 0 0 0 0 0 0 0 0 0 0 0 0 0 0 0 0 0 0 0 0 0 0 0 0 0 0 0
0 0 0 0 0 0 0 0 0 0 0 0 0 0 0 0 0 0 0 0 0 0 0 0 0 0 0 0 0 0 0 0 0 0 0 0 0 0 0 0 0 0 0 0
0 0 0 0 0 0 0 0 0 0 0 0 0 0 0 0 0 0 0 0 0 0 0 0 0 0 0 0 0 0 0 0 0 0 0 0 0 0 0 0 0 0 0 0
0 0 0 0 0 0 0 0 0 0 0 0 0 0 0 0 0 0 0 0 0 0 0 0 0 0 0 0 0 0 0 0 0 0 0 0 0 0 0 0 0 0 0 0
0 0 0 0 0 0 0 0 0 0 0 0 0 0 0 0 0 0 0 0 0 0 0 0 0 0 0 0 0 0 0 0 0 0 0 0 0 0 0 0 0 0 0 0
0 0 0 0 0 0 0 0 0 0 0 0 0 0 0 0 0 0 0 0 0 0 0 0 0 0 0 0 0 0 0 0 0 0 0 0 0 0 0 0 0 0 0 0
0 0 0 0 0 0 0 0 0 0 0 0 0 0 0 0 0 0 0 0 0 0 0 0 0 0 0 0 0 0 0 0 0 0 0 0 0 0 0 0 0 0 0 0
0 0 0 0 0 0 0 0 0 0 0 0 0 0 0 0 0 0 0 0 0 0 0 0 0 0 0 0 0 0 0 0 0 0 0 0 0 0 0 0 0 0 0 0
0 0 0 0 0 0 0 0 0 0 0 0 0 0 0 0 0 0 0 0 0 0 0 0 0 0 0 0 0 0 0 0 0 0 0 0 0 0 0 0 0 0 0 0
0 0 0 0 0 0 0 0 0 0 0 0 0 0 0 0 0 0 0 0 0 0 0 0 0 0 0 0 0 0 0 0 0 0 0 0 0 0 0 0 0 0 0 0
0 0 0 0 0 0 0 0 0 0 0 0 0 0 0 0 0 0 0 0 0 0 0 0 0 0 0 0 0 0 0 0 0 0 0 0 0 0 0 0 0 0 0 0
0 0 0 0 0 0 0 0 0 0 0 0 0 0 0 0 0 0 0 0 0 0 0 0 0 0 0 0 0 0 0 0 0 0 0 0 0 0 0 0 0 0 0 0
0 0 0 0 0 0 0 0 0 0 0 0 0 0 0 0 0 0 0 0 0 0 0 0 0 0 0 0 0 0 0 0 0 0 0 0 0 0 0 0 0 0 0 0
0 0 0 0 0 0 0 0 0 0 0 0 0 0 0 0 0 0 0 0 0 0 0 0 0 0 0 0 0 0 0 0 0 0 0 0 0 0 0 0 0 0 0 0
0 0 0 0 0 0 0 0 0 0 0 0 0 0 0 0 0 0 0 0 0 0 0 0 0 0 0 0 0 0 0 0 0 0 0 0 0 0 0 0 0 0 0 0
0 0 0 0 0 0 0 0 0 0 0 0 0 0 0 0 0 0 0 0 0 0 0 0 0 0 0 0 0 0 0 0 0 0 0 0 0 0 0 0 0 0 0 0
0 0 0 0 0 0 0 0 0 0 0 0 0 0 0 0 0 0 0 0 0 0 0 0 0 0 0 0 0 0 0 0 0 0 0 0 0 0 0 0 0 0 0 0
0 0 0 0 0 0 0 0 0 0 0 0 0 0 0 0 0 0 0 0 0 0 0 0 0 0 0 0 0 0 0 0 0 0 0 0 0 0 0 0 0 0 0 0
Wind_Speed
6 5 2 4 6 3 3 4 3 2 7 8 13 13 11 12 15 18 17 16 16 16 16 15 13 11 9 8 9 8 8 8 9 10 8 8 8 7 6 5 4 3 1 1
3 3 2 5 4 1 3 6 3 7 9 10 11 15 15 14 15 17 17 15 15 16 16 15 12 12 11 9 9 8 8 8 8 7 8 9 9 8 7 6 5 4 3 2
2 3 4 5 8 5 7 9 5 6 9 16 17 18 16 15 15 16 16 17 15 14 14 13 11 12 12 13 11 10 9 8 7 7 6 6 7 7 8 8 6 6 5 5
1 3 1 3 4 10 11 9 9 8 9 9 12 11 12 14 13 14 16 18 15 14 14 13 13 13 12 11 9 10 10 8 6 6 7 5 4 7 8 7 8 8 8 8
1 1 1 4 8 7 4 4 5 6 10 11 13 11 12 15 16 18 17 14 14 14 14 14 13 12 11 10 9 10 11 9 5 5 6 5 5 6 8 6 7 7 8 9
3 2 2 5 13 11 4 0 4 8 14 16 14 13 14 9 10 14 15 14 14 13 13 13 14 10 9 11 9 9 10 10 7 6 5 5 5 5 7 7 8 8 8 9
2 2 3 8 13 10 5 9 14 14 16 18 14 18 20 17 16 16 17 18 17 15 14 15 13 9 12 13 11 12 9 8 9 7 6 5 5 5 5 7 7 8 8 8
4 4 4 9 9 7 7 13 16 15 16 17 17 18 18 18 18 18 18 19 18 16 17 16 12 11 14 14 15 12 9 9 11 9 6 5 5 4 5 7 10 9 8 6
2 0 4 4 2 7 9 13 16 16 15 17 18 19 19 19 19 19 19 18 18 18 20 17 13 12 14 16 13 11 10 11 11 10 6 6 6 5 4 7 8 9 9 8
2 2 5 7 10 11 12 13 14 14 14 15 17 19 19 18 18 18 17 18 19 20 21 19 17 15 16 15 11 10 11 12 10 8 8 6 6 6 5 6 6 7 8 8
2 5 8 8 8 13 12 11 14 15 14 15 17 20 20 19 20 19 19 20 20 18 20 22 20 17 15 12 9 9 11 10 8 6 7 7 7 6 5 4 4 6 8 10
4 7 6 12 13 10 10 13 14 15 17 17 18 19 21 20 20 20 21 21 20 21 24 23 22 19 14 10 9 11 10 9 7 5 5 6 6 5 7 8 10 5 6 13
5 7 8 14 10 8 10 14 16 17 18 19 19 20 22 22 22 25 25 24 24 24 24 22 20 17 14 14 16 14 11 10 8 6 5 6 5 4 3 5 7 10 16 18
8 7 10 9 11 13 14 16 17 18 18 18 19 21 23 23 24 23 23 24 24 23 23 21 19 18 15 14 11 10 11 11 9 6 6 5 5 5 4 6 3 4 9 11
9 9 13 14 13 13 15 16 18 18 19 20 22 23 22 23 23 23 24 24 24 23 22 21 19 17 13 12 14 14 12 8 7 5 6 5 5 5 5 6 5 4 6 6
10 10 11 12 15 15 16 17 17 19 21 23 23 21 22 23 23 23 23 23 22 21 21 19 17 16 12 10 12 10 9 10 7 5 5 5 4 5 5 4 6 5 8 9
10 12 13 14 16 16 16 17 19 21 22 23 23 22 22 22 22 22 22 21 18 17 16 15 15 11 8 9 8 4 4 5 6 5 5 6 5 5 5 6 8 9 9 11
8 11 14 15 15 16 17 17 19 21 21 22 22 22 22 23 22 21 19 20 17 14 13 12 12 9 9 8 6 6 6 6 6 6 5 6 6 6 6 8 6 8 8 12
11 12 14 14 14 13 15 18 19 20 20 20 22 22 23 23 22 21 17 14 15 13 13 11 15 11 7 5 4 3 4 4 5 4 5 6 6 5 7 6 6 8 9 11
12 12 13 13 12 13 16 17 18 18 18 19 20 22 22 22 22 21 18 12 11 11 15 13 11 7 5 3 4 3 3 4 5 5 6 6 6 6 7 5 8 10 10 11
11 11 11 12 13 15 16 16 16 17 19 19 19 21 23 23 22 20 17 12 11 12 14 17 10 6 3 4 4 4 5 6 6 6 7 7 6 7 7 7 9 10 9 10
10 9 10 12 14 16 16 16 16 17 18 18 20 22 22 22 21 19 18 12 11 12 10 9 9 8 7 6 4 4 5 6 6 5 6 6 5 6 6 9 9 9 8 9
8 7 9 13 15 16 16 15 16 17 18 19 20 21 21 20 17 16 16 16 14 15 12 9 11 12 11 4 2 3 4 4 5 5 6 7 6 6 7 8 8 8 8 9
7 7 10 13 14 15 16 18 18 16 16 17 18 20 20 18 16 15 15 18 20 20 15 11 11 11 7 2 1 1 3 3 4 5 6 7 7 8 8 8 8 7 8 9
7 9 10 12 13 12 14 16 17 16 16 16 18 18 17 16 16 17 16 16 19 18 14 13 12 8 3 2 2 3 3 2 1 4 8 9 9 9 9 8 8 8 8 7
7 8 10 11 10 10 11 11 12 13 14 14 15 16 14 13 15 15 15 16 15 15 13 11 9 4 2 3 1 3 5 5 5 7 8 8 8 8 8 7 8 7 7 6
7 9 10 10 10 9 10 12 12 13 15 15 14 16 15 13 14 15 15 14 13 12 11 10 10 8 6 4 3 4 5 7 7 6 6 6 6 6 7 7 6 5 5 6
Wind_Direction
236 237 227 263 280 299 181 223 218 114 92 13 4 6 360 2 4 360 353 349 345 340 336 334 328 321 321 331 321 325 330 321 295 277 252 232 223 222 233 236 248 257 256 348
275 273 244 272 292 132 53 24 55 87 66 13 2 360 352 350 349 346 335 333 328 325 318 307 298 300 309 308 304 318 327 321 315 301 274 248 227 211 213 215 219 220 200 179
276 338 335 341 349 28 72 48 33 44 21 357 348 349 341 333 334 325 316 307 299 293 289 289 293 300 305 300 313 315 303 301 310 317 315 287 251 217 212 204 201 209 197 181
316 5 297 147 72 87 93 67 56 45 12 332 285 265 257 250 251 262 258 263 272 278 277 278 286 290 292 295 300 297 294 294 308 320 323 320 258 236 229 211 202 204 195 190
29 329 130 80 19 11 10 57 50 329 295 280 274 264 258 246 241 248 253 260 268 270 273 277 281 288 289 278 282 286 289 291 300 315 318 320 285 246 233 207 210 202 192 187
39 334 4 349 329 322 320 217 307 286 292 299 306 295 294 282 266 268 271 274 271 273 278 274 269 266 270 267 273 274 279 288 290 288 289 296 293 261 218 207 212 210 191 189
11 281 72 331 330 348 33 306 310 295 284 284 280 278 290 292 285 277 274 273 274 275 271 265 261 258 267 268 262 259 262 278 276 268 262 262 264 257 232 218 219 216 200 183
359 7 345 343 14 47 274 275 281 287 289 290 287 289 290 287 285 285 281 279 276 272 267 266 257 255 265 267 265 265 268 278 275 263 256 253 254 269 258 229 219 210 205 180
69 341 273 293 259 246 261 279 288 292 298 300 298 296 295 293 293 290 285 278 273 270 270 266 254 245 252 258 262 266 268 274 278 277 271 256 243 241 263 250 220 201 194 182
174 241 267 263 256 269 292 302 309 311 308 305 299 296 296 295 293 292 290 284 285 284 279 271 257 247 244 248 250 256 258 263 272 271 272 271 258 236 223 239 212 203 189 187
290 285 297 280 288 308 313 312 313 309 302 297 295 293 293 293 294 292 291 293 293 287 280 270 266 255 240 241 246 250 252 256 259 257 267 271 265 254 229 201 214 192 195 197
273 276 282 295 302 303 311 310 301 300 300 301 300 298 296 296 296 295 295 294 291 291 286 279 276 260 243 245 257 260 259 261 255 248 254 259 262 268 236 213 220 211 252 241
255 277 283 290 294 294 302 304 303 301 297 301 304 302 300 300 299 300 304 303 300 298 293 288 287 284 283 275 261 247 239 250 244 234 237 248 249 248 271 243 228 257 250 219
294 303 307 296 298 299 299 298 303 302 302 303 302 302 301 302 304 305 303 299 295 291 288 284 281 278 275 273 257 245 247 238 226 223 227 230 234 235 241 274 275 237 195 176
299 308 304 304 300 300 306 308 310 309 309 308 306 304 310 310 306 302 299 296 293 288 283 278 275 268 259 272 268 247 234 215 211 213 225 224 235 238 220 229 238 215 121 117
301 304 301 303 301 308 315 312 312 311 313 310 308 309 310 307 305 303 302 305 303 301 299 294 280 269 256 263 274 240 213 198 193 202 223 227 233 238 236 249 273 214 166 156
317 316 312 309 308 312 314 312 313 314 313 310 309 312 309 306 306 306 308 309 309 307 311 314 306 286 261 263 258 230 205 198 196 205 214 218 221 231 240 247 242 188 172 163
296 296 300 301 303 309 313 313 314 313 312 311 311 309 309 308 307 304 305 310 313 313 312 312 309 287 269 267 252 224 214 207 207 198 209 215 216 213 235 262 216 171 172 164
304 300 297 298 301 303 306 312 314 313 311 313 311 310 310 309 310 310 305 304 307 312 314 314 313 319 303 272 276 222 196 210 213 197 213 218 217 228 263 244 177 169 158 155
301 299 298 299 300 303 306 311 313 312 313 313 312 311 310 311 315 315 311 294 291 301 310 319 314 300 296 261 245 240 230 229 225 219 224 219 213 234 258 201 162 159 157 161
296 300 303 303 305 308 312 314 315 314 311 314 314 312 312 313 315 314 313 304 300 298 307 318 319 311 299 265 246 235 235 237 234 225 217 211 215 245 243 178 163 157 155 159
302 307 304 304 309 317 321 319 317 315 313 314 315 314 314 316 316 314 313 313 312 302 291 297 308 309 301 282 256 240 238 236 232 220 205 198 217 246 211 166 161 154 151 155
304 304 307 312 318 319 318 318 318 319 316 315 315 313 316 316 316 317 322 323 322 318 314 296 285 298 306 296 226 224 235 240 233 214 195 189 215 213 171 154 150 145 147 150
307 311 313 314 320 326 324 323 321 319 317 314 313 314 320 322 320 323 322 319 323 325 325 320 305 307 320 352 356 211 206 211 211 209 195 190 182 158 147 142 139 141 148 149
315 318 323 325 326 324 319 319 320 321 324 322 320 322 325 327 327 324 326 327 327 326 329 335 340 343 5 28 357 320 309 326 95 135 132 132 134 136 139 141 144 146 150 152
325 328 322 317 313 313 316 316 317 320 323 321 322 325 328 331 329 329 329 331 332 330 333 341 356 24 90 98 65 324 330 358 65 85 98 106 117 123 129 138 144 144 143 146
331 328 323 322 322 319 316 315 317 320 323 320 320 325 332 332 333 334 333 333 335 338 345 358 16 35 42 38 32 28 31 36 50 79 106 116 122 125 133 138 139 140 142 147